Weather in Causeni

Moldova     46°38′58″N   29°24′24″E
temp.,
°C
wind,
m/s
gust,
m/s
humid.,
%
clouds,
%
prec.,
mm/h
press.,
hPa
HPBL,
m
24 january, mon
mon2423:00−4nne5108088 0.0 1026502
02:00−4n6108297 0.0 1028627
05:00−4nnw71180100 0.0 1028659
08:00−5nnw71273100 0.0 1029665
11:00−3n81163100 0.0 1030813
14:00−1nnw91153100 0.0 10291138
17:00−2nnw81253100 0.0 10291026
20:00−4nnw81366100 0.0 1030920
25 january, tue
tue2523:00−5nnw81283100 0.3 1029716
02:00−5nnw61291100 1.0 1029643
05:00−6nnw61289100 0.6 1028586
08:00−6nnw61279100 1.0 1028569
11:00−4nnw796483 0.1 1028688
14:00−2nnw67527 0.1 1026865
17:00−5nw23655 0.0 102548
20:00−6wnw227329 0.0 102518
26 january, wed
wed2623:00−7wsw227573 0.0 102414
02:00−6wsw2372100 0.0 102359
05:00−5wsw2696100 0.1 1020190
08:00−3w3996100 0.7 1020325
11:00+1nw5109099 0.5 1019590
14:00+2nnw5987100 0.8 1019837
17:000nnw5108999 0.2 1020486
20:00−2nnw4994100 0.3 1022409
27 january, thu
thu2723:00−3nnw48855 0.0 1023251
02:00−5nw229475 0.0 102344
05:00−6w22965 0.0 102318
08:00−6wsw2296100 0.0 102326
11:00−1wsw468078 0.0 1022363
14:00+1wsw6886100 0.3 1020511
17:000wsw3873100 0.1 1018158
20:00−1sw3873100 0.1 1017164
28 january, fri
fri2823:00−1sw387292 0.0 1016152
02:00−1sw3875100 0.0 1014160
05:00−1sw3779100 0.0 1013134
08:00−1sw2282100 0.0 101418
11:00+3s116159 0.0 1014141
14:00+5sw235647 0.0 1014402
17:00+2wsw3373100 0.0 101428
20:00+2wsw59746 0.0 1015145